Hourly Data Report for January 22, 2017

All times are specified in Local Standard Time (LST). Add 1 hour to adjust for Daylight Saving Time where and when it is observed.

ST LEONARD CS
NEW BRUNSWICK

47°09'28.050" N
67°49'55.014" W
245.00 m
810I001
71019
WIY

Download Data

Hourly Data (January 2017)
Hourly Data Report for January 22, 2017
Temp Definition
°C
Dew Point Temp Definition
°C
Rel Hum Definition
%
Wind Dir Definition
10's deg

Wind Spd Definition
km/h
Visibility Definition
km
Stn Press Definition
kPa
Hmdx Definition


Wind Chill Definition


Weather Definition


TIME
00:00 -1.7 -3.6 87 31 10   97.65   -5 LegendNANA
01:00 -2.6 -4.1 90 30 7   97.64   -5 LegendNANA
02:00 -2.0 -3.3 91 33 7   97.61   -5 LegendNANA
03:00 -2.1 -3.1 93 29 8   97.73   -5 LegendNANA
04:00 -1.8 -2.9 92 30 14   97.79   -6 LegendNANA
05:00 -1.9 -3.0 92 32 12   97.80   -6 LegendNANA
06:00 -1.8 -3.0 91 31 14   97.93   -6 LegendNANA
07:00 -1.8 -5.7 74 36 13   97.98   -6 LegendNANA
08:00 -2.3 -6.1 76 36 12   98.05   -7 LegendNANA
09:00 -2.6 -6.4 75 1 11   98.16   -7 LegendNANA
10:00 -3.3 -6.0 82 2 13   98.27   -8 LegendNANA
11:00 -3.5 -8.3 70 3 15   98.36   -9 LegendNANA
12:00 -3.6 -8.6 68 36 10   98.40   -8 LegendNANA
13:00 -3.0 -8.1 68 3 11   98.39   -7 LegendNANA
14:00 -2.5 -8.0 66 1 10   98.42   -6 LegendNANA
15:00 -2.7 -8.3 65 2 13   98.46   -7 LegendNANA
16:00 -2.5 -7.6 68 2 11   98.63   -7 LegendNANA
17:00 -2.6 -7.5 69 1 10   98.71   -6 LegendNANA
18:00 -2.9 -7.6 70 2 9   98.78   -6 LegendNANA
19:00 -3.3 -7.5 73 36 6   98.84   -6 LegendNANA
20:00 -3.6 -7.4 75 36 6   98.90   -6 LegendNANA
21:00 -3.9 -7.1 78 1 6   98.94   -7 LegendNANA
22:00 -4.1 -6.9 81 1 6   98.99   -7 LegendNANA
23:00 -4.5 -7.1 82 1 8   99.02   -8 LegendNANA

Notes on Data Quality.

Legend

  • E = Estimated
  • M = Missing
  • NA = Not Available
  • ‡ = Partner data that is not subject to review by the National Climate Archives
Date modified: